Simultaneous Nadir Overpasses (SNOs) Predictions

Prediction of SNOs between LANDSAT-8 and NOAA-19 Satellite Orbit:

Table of predicted SNOs for the next 14.0 days since TLE Epoch: 6/8/2019
Index Date (LANDSAT-8) Time (LANDSAT-8) Lat,Lon (LANDSAT-8) SZA (LANDSAT-8 ) Date (NOAA-19) Time (NOAA-19) Lat,Lon (NOAA-19) SZA (NOAA-19 ) Distance(km) Time Diff (sec)
1 06/09/2019 23:48:51 78.80,-157.66 56.49 06/09/2019 23:48:20 78.83,-157.73 56.51 3.90 31
2 06/10/2019 00:38:19 -78.77, 9.81 123.55 06/10/2019 00:39:22 -78.78, 9.89 123.52 2.03 63
3 06/12/2019 05:22:36 -78.83, -60.92 123.64 06/12/2019 05:21:49 -78.84, -61.05 123.65 2.91 47
4 06/12/2019 06:12:03 78.78, 106.44 56.30 06/12/2019 06:12:45 78.81, 106.43 56.34 3.20 42
5 06/14/2019 10:56:19 78.83, 35.68 56.24 06/14/2019 10:55:10 78.85, 35.61 56.22 2.07 69
6 06/14/2019 11:45:47 -78.81,-156.83 123.80 06/14/2019 11:46:13 -78.80,-156.80 123.80 1.16 26
7 06/16/2019 17:19:31 78.81, -60.24 56.10 06/16/2019 17:19:35 78.83, -60.26 56.12 1.64 4
8 06/18/2019 22:53:16 -78.84, 36.49 123.93 06/18/2019 22:53:05 -78.83, 36.41 123.94 2.05 11
9 06/18/2019 23:42:46 78.66,-156.86 55.84 06/18/2019 23:43:55 78.64,-154.90 55.98 43.13 69
10 06/21/2019 04:27:00 78.84, 133.05 56.04 06/21/2019 04:26:26 78.85, 133.02 56.04 1.46 34




NCC Satellite Simultaneous Nadir Overpasses (SNOs) Prediction Service
